Regional Weather Roundup
Issued by NWS Charleston, SC

Current Version | Previous Version | Graphics & Text | Print | Product List | Glossary On
Versions: 1 2 3 4 5 6 7 8 9 10 11 12 13 14 15 16 17 18 19 20 21 22 23 24 25 26 27 28 29 30 31 32 33 34 35 36 37 38 39 40 41 42 43 44 45 46 47 48 49 50
000
ASUS42 KCHS 280113
RWRCHS

REGIONAL WEATHER ROUNDUP
NATIONAL WEATHER SERVICE CHARLESTON SC
900 PM EDT WED APR 27 2016

NOTE: "FAIR" INDICATES FEW OR NO CLOUDS BELOW 12,000 FEET WITH NO
SIGNIFICANT WEATHER AND/OR OBSTRUCTIONS TO VISIBILITY.

NOT ALL STATIONS ARE QUALITY CONTROLLED. USE DATA WITH CAUTION...
ESPECIALLY DEWPOINT OBSERVATIONS.

SCZ027-030-031-034>040-042>050-280200-
...SOUTHEAST SOUTH CAROLINA...

CITY           SKY/WX    TMP DP  RH WIND       PRES   REMARKS
N CHARLESTON   PTCLDY    71  64  78 S10       29.89R
WATERFRONT PRK   N/A     72  68  87 SW8       29.87R
MOUNT PLEASANT FAIR      72  66  83 S5        29.91R
JOHNS ISLAND   FAIR      72  66  83 S10       29.91R
PINOPOLIS        N/A     75  59  57 S7        29.80R
MONCKS CORNER  FAIR      70  55  60 S8        29.88R
SUMMERVILLE    FAIR      72  63  73 S5        29.90R
BEAUFORT MCAS  CLOUDY    73  65  75 S8        29.90R
BEAUFORT ARPT  FAIR      72  64  78 S12       29.89R
HILTON HEAD IS CLOUDY    72  70  94 S8        29.91R
WALTERBORO     CLOUDY    73  61  64 S8        29.89R
ALLENDALE      FAIR      77  63  61 S6G13     29.87R

...SOUTHERN MIDLANDS AND PEE DEE...

CITY           SKY/WX    TMP DP  RH WIND       PRES   REMARKS
GEORGETOWN     FAIR      70  63  78 S8        29.90S
KINGSTREE      FAIR      73  61  64 SE6       29.87R
ORANGEBURG     CLOUDY    75  61  61 S10       29.87R
BARNWELL       FAIR      79  68  69 S7        29.87R
AIKEN          FAIR      73  59  60 S5        29.88R
MANNING        NOT AVBL
COLUMBIA       CLOUDY    79  60  52 S6        29.83R
SUMTER         CLEAR     77  64  64 S13       29.83R
FLORENCE       PTCLDY    78  63  59 S13       29.85R
MYRTLE BEACH   NOT AVBL
N MYRTLE BEACH CLEAR     71  66  84 SW15G25   29.89R

$$

GAZ063-065-086>088-099>101-113>116-118-119-134>141-150-280200-
...SOUTHEAST GEORGIA...

CITY           SKY/WX    TMP DP  RH WIND       PRES   REMARKS
SAVANNAH ARPT  MOCLDY    73  61  65 S13       29.89R
HUNTER AAF     PTCLDY    73  66  80 S8        29.87R
FORT STEWART   CLEAR     73  60  62 CALM      29.87R
STATESBORO     PTCLDY    80  68  66 S7        29.88R
SYLVANIA       PTCLDY    77  64  62 S3        29.88R
CLAXTON        CLOUDY    77  65  67 SE3       29.89R

...CSRA...CENTRAL AND FAR SOUTHEAST GEORGIA...

CITY           SKY/WX    TMP DP  RH WIND       PRES   REMARKS
THOMSON        CLEAR     76  66  70 CALM      29.90R
AUGUSTA-BUSH   CLOUDY    71  63  75 CALM      29.83R
AUGUSTA-DANIEL CLOUDY    80  58  46 SW5       29.85R
SWAINSBORO     FAIR      73  63  68 CALM      29.88R
VIDALIA        PTCLDY    77  63  61 SW3       29.87R
EASTMAN        CLOUDY    75  65  71 CALM      29.90R
HAZLEHURST     FAIR      75  63  66 CALM      29.87R
ALMA           CLOUDY    74  64  71 CALM      29.88R
WAYCROSS       PTCLDY    73  67  81 SW3       29.89R
JESUP          FAIR      79  66  65 S6        29.90R
BAXLEY         MOCLDY    79  64  61 S5        29.88R
BRUNSWICK      CLEAR     79  68  69 S9        29.91R
SAINT SIMONS   CLEAR     73  67  81 S10G17    29.90R

$$

SCZ027-028-034-036>038-045-046-048>050-GAZ119-141-280200-
...LAKE AND SUPPLEMENTAL COASTAL OBSERVATIONS...

STATION/POSITION TIME  TEMP    WIND        PRES    WAVE   SWELL
                       AIR SEA DIR/SP/G            HT/PER HT/PER/DIR
                 (UTC) (F)     (DEG/KT/KT) (MB)    (FT/S) (FT/S/D)
WINYAH BAY       2345   74     210/ 11     1011.0
LAKE MURRAY      0000   80     230/  5/  6 1009.1R
ACE BASIN NERRS  2345   74        CALM     1012.0
FORT PULASKI     0000      72              1012.4R
SAPELO ISLAND    0000   74     160/ 10     1012.0R

$$

ANZ835-935-AMZ111-154-330-350-352-354-370-450-454-472-280200-
...C-MAN AND BUOY OBSERVATIONS...

STATION/POSITION TIME  TEMP    WIND        PRES    WAVE   SWELL
                       AIR SEA DIR/SP/G            HT/PER HT/PER/DIR
                 (UTC) (F)     (DEG/KT/KT) (MB)    (FT/S) (FT/S/D)
BUOY 41004       0050   74 74  190/ 10/ 12 1012.5R   2/ 5   2/ 6
BUOY 41008       NOT AVBL
FOLLY BEACH CMAN 0000   71     190/ 11/ 13 1012.2F
CAPERS NEARSHORE 0008   71 69  210/ 14/ 16 1011.9F
FRIPP NEARSHORE  0008   71 71  180/ 12/ 17 1011.5R


STATION/POSITION TIME  TEMP    WIND        PRES    WAVE   SWELL
                       AIR SEA DIR/SP/G            HT/PER HT/PER/DIR
                 (UTC) (F)     (DEG/KT/KT) (MB)    (FT/S) (FT/S/D)
5E ST. MARYS GA  0021      73                N/A     3/ 4
FRYING PAN BUOY  0000   73 72  210/ 14/ 16 1012.4R
BUOY 41025       0050   73 71  220/ 17/ 19 1011.8R   5/ 5   2/160/ 8
CAPE LOOKOUT NC  0000   69     210/  9/ 11 1011.4R
BUOY 41002       0050   70 71  170/ 12/ 12 1015.9R   2/11   2/ 60/11
BUOY 41010       0020   74 77  150/  4/  6 1014.6R
ST AUGUSTINE FL  0100   73 74  160/ 17/ 18 1013.8R


$$




USA.gov is the U.S. government's official web portal to all federal, state and local government web resources and services.